Location: Acton
(51.4942°N, 0.2232°W)
Time: 15:36:32
(UTC+00:00)

Cosmos 2082 Rocket - Visible Passes

Search period start: 30 November 2021 00:00
Search period end: 10 December 2021 00:00
Orbit: 833 x 853 km, 71.0° (Epoch: 29 November)

Date Brightness Start Highest point End Pass type
(mag) Time Alt. Az. Time Alt. Az. Time Alt. Az.
30 Nov 4.8 03:13:03 12° ESE 03:13:03 12° ESE 03:13:27 10° ESE visible
30 Nov 3.6 04:54:58 24° SSW 04:54:58 24° SSW 04:57:19 10° S visible
30 Nov 2.9 18:00:18 10° SSE 18:05:10 31° ESE 18:05:10 31° ESE visible
30 Nov 3.4 19:43:26 10° SW 19:47:04 38° WSW 19:47:04 38° WSW visible
01 Dec 4.2 04:41:50 15° S 04:41:50 15° S 04:42:49 10° S visible
01 Dec 3.0 17:45:49 10° SSE 17:50:40 30° ESE 17:51:42 28° E visible
01 Dec 2.8 19:28:51 10° SW 19:33:35 52° W 19:33:35 52° W visible
02 Dec 3.1 17:31:21 10° SSE 17:36:07 29° ESE 17:38:07 23° ENE visible
02 Dec 2.6 19:14:15 10° SW 19:19:52 60° NW 19:20:00 60° NW visible
02 Dec 5.0 21:01:16 10° WNW 21:01:53 12° WNW 21:01:53 12° WNW visible
03 Dec 3.1 17:16:52 10° SSE 17:21:35 28° ESE 17:24:28 18° ENE visible
03 Dec 2.5 18:59:39 10° SW 19:05:17 62° NW 19:06:21 52° N visible
03 Dec 4.8 20:46:36 10° WNW 20:48:13 15° WNW 20:48:13 15° WNW visible
04 Dec 3.2 17:02:23 10° SSE 17:07:02 27° ESE 17:10:43 14° NE visible
04 Dec 2.5 18:45:04 10° SW 18:50:43 64° NW 18:52:35 41° N visible
04 Dec 4.6 20:31:55 10° WNW 20:34:28 18° NW 20:34:28 18° NW visible
05 Dec 3.3 16:47:55 10° SSE 16:52:29 26° ESE 16:56:54 11° NE visible
05 Dec 2.5 18:30:29 10° SW 18:36:08 66° NW 18:38:46 32° NNE visible
05 Dec 4.4 20:17:16 10° W 20:20:38 19° NW 20:20:38 19° NW visible
06 Dec 3.3 16:33:27 10° SSE 16:37:57 25° ESE 16:42:27 10° NE visible
06 Dec 2.4 18:15:54 10° SW 18:21:33 69° WNW 18:24:52 26° NNE visible
06 Dec 4.3 20:02:35 10° W 20:06:43 20° NNW 20:06:44 20° NNW visible
07 Dec 2.4 18:01:19 10° SW 18:06:59 71° WNW 18:10:56 21° NNE visible
07 Dec 4.2 19:47:55 10° W 19:52:07 21° NW 19:52:48 20° NNW visible
08 Dec 2.4 17:46:44 10° SW 17:52:24 73° WNW 17:56:57 16° NNE visible
08 Dec 4.1 19:33:15 10° W 19:37:30 21° NW 19:38:48 20° NNW visible
09 Dec 2.3 17:32:09 10° SW 17:37:50 76° WNW 17:42:54 13° NNE visible
09 Dec 4.1 19:18:36 10° W 19:22:53 22° NW 19:24:45 18° N visible
